Location: Newark
(48.5667°N, 12.8167°E)
Time: 23:38:07
(UTC+00:00)

ISS - Visible Passes

Search period start: 17 September 2019 00:00
Search period end: 27 September 2019 00:00
Orbit: 411 x 421 km, 51.6° (Epoch: 18 September)

Date Brightness Start Highest point End Pass type
(mag) Time Alt. Az. Time Alt. Az. Time Alt. Az.
19 Sep -2.1 18:37:26 10° S 18:39:15 19° SSE 18:39:15 19° SSE visible
20 Sep -1.8 17:49:57 10° SSE 17:51:42 14° SE 17:53:22 10° ESE visible
20 Sep -2.1 19:24:38 10° SW 19:26:18 27° SW 19:26:18 27° SW visible
21 Sep -3.4 18:36:18 10° SW 18:39:28 44° SSE 18:40:10 38° ESE visible
21 Sep -0.5 20:12:55 10° W 20:13:05 11° W 20:13:05 11° W visible
22 Sep -2.8 17:48:07 10° SSW 17:51:04 29° SE 17:53:52 11° E visible
22 Sep -2.8 19:24:18 10° WSW 19:26:46 45° W 19:26:46 45° W visible
23 Sep -3.9 18:35:45 10° WSW 18:39:05 88° SSE 18:40:20 36° ENE visible
23 Sep -0.6 20:12:46 10° WNW 20:13:14 13° WNW 20:13:14 13° WNW visible
24 Sep -3.7 17:47:16 10° SW 17:50:34 63° SSE 17:53:46 11° ENE visible
24 Sep -2.5 19:24:08 10° W 19:26:40 41° NW 19:26:40 41° NW visible
25 Sep -3.4 18:35:28 10° W 18:38:46 59° NNW 18:40:02 32° NE visible
25 Sep -0.5 20:12:32 10° WNW 20:12:55 13° WNW 20:12:55 13° WNW visible
26 Sep -3.6 17:46:50 10° WSW 17:50:10 73° NNW 17:53:20 11° ENE visible
26 Sep -2.2 19:23:55 10° WNW 19:26:13 35° NW 19:26:13 35° NW visible
